Find Starlink 37607

NORAD ID: 69514 Int'l Des: 2026-133 Owner: SPXS Country: US Constellation: starlink operational
LEOCIRCULAR

Current View

Loading 3D Globe...

About Starlink 37607

Starlink 37607 (NORAD 69514) is a starlink constellation satellite (v2 mini) launched Jun 11, 2026 by SPXS of US. It operates in LEO, CIRCULAR orbit with a mass of 575.00 kg.

Upcoming Passes

Passes for default location (London). Set your location on the main map for personalized predictions.

Altitude History

Loading altitude history...

Two-Line Element Set

1 69514U 26133G 26223.97134979 .00010367 00000-0 31767-3 0 9998
2 69514 53.1580 54.6280 0000765 88.9531 271.1559 15.34384400 10683
Epoch: Aug 11, 2026 • Age: 10 hours

Current Status

Altitude 462.7 km
Apogee / Perigee N/A
Velocity 7.64 km/s
Sub-Earth Point 13.12°N, 120.79°E
Launch Date Jun 11, 2026
Age 0.1 years
Type internet

Technical Details

Classification Payload
Mass 575.00 kg
Dry Mass 530.00 kg
Total Mass 575.00 kg
Length 0.30 m
Diameter 4.10 m
Span 29.00 m
Shape Box + pan
Manufacturer SPXS
Bus Type Starlink V2MO
Phase Status In Orbit
Owner/State SPXS/US

Most Searched